User: anonymous   Login
Location: Frydek-Mistek
(49.6830°N, 18.3330°E)
Time: 02:15:41
(UTC+02:00)
Language:

Courier 1B Rocket - Orbit

View from above orbital plane
View from above orbital plane
View from above satellite
View from above satellite

Ground track
Ground track

The orbit data is extracted from the following two-line orbital elements,

1 00059U 60013B   16206.49587317  .00000111  00000-0  25639-4 0  9995
2 00059  28.2505 332.5683 0189227 214.8437 143.9588 13.52940595754126
Epoch (UTC): 24 July 2016 11:54:03
Eccentricity: 0.0189227
inclination: 28.2505°
perigee height: 920 km
apogee height: 1202 km
right ascension of ascending node: 332.5683°
argument of perigee: 214.8437°
revolutions per day: 13.52940595
mean anomaly at epoch: 143.9588°
orbit number at epoch: 75412

The dashed part of the orbit path shows where the satellite is in the earth's shadow,  

DLR